sat.trackr.live / text

‹ back to catalog

STARLINK-11092 [DTC]

NORAD 59710 · 2024-088C

PAYLOAD ACTIVE UNKNOWN

§ Identity

Operator
Country
US
Launch date
2024-05-10
Launch site
AFWTR
Launch vehicle
Mass (kg)
RCS (m²)

Purposes: comms

External: N2YO · Heavens-Above · Gunter

§ Orbital elements

Epoch: 2026-05-25T04:29:29.442048Z

Period
91.74 min
Inclination
53.1605°
Eccentricity
0.0001083
Mean motion
15.69709520 rev/d
Perigee alt
359.0 km
Apogee alt
360.5 km
Semi-major
6,737.9 km
B*
8.4463e-6
RAAN
309.4142°
Arg perigee
86.3472°
Mean anomaly
273.7670°
Rev number
11,828

§ Raw data

STARLINK-11092 [DTC]1 59710U 24088C   26145.18714632  .00000435  00000+0  84463-5 0  99952 59710  53.1605 309.4142 0001083  86.3472 273.7670 15.69709520118285

JSON: /api/v1/satellites/59710 · /tle

For live sub-satellite position, see the globe view (requires WebGL).

§ Visibility from observer

Set your observer location to see the next 7 days of passes ≥ 10°. The values pass through the URL so the page stays shareable.

No JS? Fill the form by hand. The geolocation button needs JavaScript.